Weather Roundup
Issued by NWS

Home | Current Version | Previous Version | Text Only | Print | Product List | Glossary On
Versions: 1 2 3 4 5 6 7 8 9 10 11 12 13 14 15 16 17 18 19 20 21 22 23 24 25 26 27 28 29 30 31 32 33 34 35 36 37 38 39 40 41 42 43 44 45 46 47 48 49 50
000
NZUS93 KARX 191759
HRRWXR

CURRENT HOURLY OBSERVATIONS ACROSS
MUCH OF THE UPPER MISSISSIPPI VALLEY
NATIONAL WEATHER SERVICE LA CROSSE WI
1200 PM CST THU JAN 19 2017


...SOUTHEAST MINNESOTA...


CITY           SKY/WX    TMP DP  RH WIND       PRES   REMARKS
ROCHESTER      FOG       31  31 100 SE13      29.81F VSB 1/4 WCI  21
ROCHESTER/MAYO CLOUDY    32  32 100 SE7       29.82F WCI  26
WINONA         PTSUNNY   36  34  93 E6        29.85F WCI  31
AUSTIN         FOG       30  30 100 S7        29.81F VSB 1/2 WCI  23
ALBERT LEA     CLOUDY    34  34 100 SE15      29.80S FOG     WCI  24
DODGE CENTER   CLOUDY    30  30 100 CALM      29.79F FOG
PRESTON        FOG       31  31  97 S9        29.83F VSB 1/2 WCI  23
OWATONNA       PTSUNNY   34  32  93 SE10      29.78F WCI  26
FARIBAULT        N/A     36  32  87 SE6       29.79F WCI  31
$$

...ELSEWHERE IN MINNESOTA...


CITY           SKY/WX    TMP DP  RH WIND       PRES   REMARKS
MINNEAPOLIS    MOSUNNY   35  31  85 SE10      29.78F WCI  27
INTNL FALLS    CLOUDY    34  31  88 VRB5      29.63F FOG     WCI  30
DULUTH         MOSUNNY   39  35  86 S9        29.71F WCI  33
RED WING       CLOUDY    34  30  86 SE6       29.82F FOG     WCI  29
REDWOOD FALLS  PTSUNNY   36  32  85 SE14      29.71F FOG     WCI  27
MANKATO        NOT AVBL
WORTHINGTON    FOG       36  35  96 S14       29.72  VSB 1/2 WCI  27
FAIRMONT       CLOUDY    35  34  96 S12       29.77F FOG     WCI  27
$$

...SOUTHWEST WISCONSIN...


CITY           SKY/WX    TMP DP  RH WIND       PRES   REMARKS
LA CROSSE      CLOUDY    35  33  92 S10       29.87F FOG     WCI  27
PRAIRIE DU CHI CLOUDY    33  32  95 E3        29.90F FOG
BOSCOBEL       CLOUDY    37  33  85 CALM      29.91F
LONE ROCK      FOG       34  33  96 E7        29.91F VSB 1/2 WCI  28
PLATTEVILLE    CLOUDY    35  35 100 E3        29.88F VSB<1/4
FORT MC COY    SUNNY     40  33  76 CALM      29.88F
MAUSTON-NEW LI CLOUDY    32  32  99 SE7       29.88F FOG     WCI  26
VIROQUA        CLOUDY    32  32 100 S7        29.86F VSB<1/4 WCI  26
WIS DELLS      PTSUNNY   33  33  99 S3        29.89F FOG
$$

...ELSEWHERE IN WISCONSIN...


CITY           SKY/WX    TMP DP  RH WIND       PRES   REMARKS
MILWAUKEE      FOG       35  34  96 CALM      29.94F VSB 1/4
MADISON        FOG       33  33 100 S6        29.91F VSB 1   WCI  28
GREEN BAY      FOG       34  34 100 S6        29.91F VSB 1/4 WCI  29
EAU CLAIRE     NOT AVBL
BLACK RVR FLS  FAIR      43  32  64 SE3       29.85F
MEDFORD        FOG       31  31 100 SE5       29.83F VSB 1/4 WCI  26
WAUSAU         FOG       32  32 100 SE6       29.84F VSB 1/4 WCI  26
WIS RAPIDS     CLOUDY    33  33 100 E7        29.88F FOG     WCI  27
MARSHFIELD     FOG       32  31  96 SE8       29.84F VSB<1/4 WCI  25
RICE LAKE      CLOUDY    32  32  99 SE8       29.83F FOG     WCI  25
$$

...NORTHEAST IOWA...


CITY           SKY/WX    TMP DP  RH WIND       PRES   REMARKS
WATERLOO       CLOUDY    34  33  96 SE6       29.85F FOG     WCI  29
DUBUQUE        CLOUDY    36  36 100 E5        29.87F FOG     WCI  32
DECORAH        FOG       32  32 100 VRB7G14   29.85S VSB 1/2 WCI  26
MASON CITY     FOG       31  31 100 SE7       29.82F VSB 1   WCI  24
CHARLES CITY   LGT RAIN  32  32 100 SE8       29.84F WCI  25
OELWEIN        LGT SNOW  34  34 100 SE7       29.85F WCI  28
$$

...ELSEWHERE IN IOWA...


CITY           SKY/WX    TMP DP  RH WIND       PRES   REMARKS
DES MOINES     CLOUDY    39  37  92 E3        29.79F FOG
IOWA CITY      LGT RAIN  39  36  89 SE8       29.88F FOG     WCI  33
FORT DODGE     CLOUDY    37  34  87 SE6       29.79F WCI  33
MARSHALLTOWN   CLOUDY    35  35 100 E9        29.82F FOG     WCI  28
CEDAR RAPIDS   CLOUDY    36  35  96 E8        29.84F FOG     WCI  30
$$

...NORTHERN ILLINOIS...


CITY           SKY/WX    TMP DP  RH WIND       PRES   REMARKS
CHICAGO-OHARE  CLOUDY    39  36  89 S5        29.94F FOG
CHICAGO-MIDWAY CLOUDY    39  35  86 E3        29.95F FOG
MOLINE         CLOUDY    40  36  86 E7        29.88F FOG
ROCKFORD       CLOUDY    37  35  92 SE8       29.92F FOG     WCI  31
PEORIA         CLOUDY    43  38  82 SE6       29.89F
$$

NOTE: "FAIR" INDICATES FEW OR NO CLOUDS BELOW 12,000 FEET WITH NO
SIGNIFICANT WEATHER AND/OR OBSTRUCTIONS TO VISIBILITY. WIND
SPEEDS ARE IN MILES-PER-HOUR.




USA.gov is the U.S. government's official web portal to all federal, state and local government web resources and services.